TimeMST,TemperatureF,Dew PointF,Humidity,Sea Level PressureIn,VisibilityMPH,Wind Direction,Wind SpeedMPH,Gust SpeedMPH,PrecipitationIn,Events,Conditions,WindDirDegrees,DateUTC
12:15 AM,32.0,30.2,93,30.04,1.5,SSE,4.6,-,N/A,Snow,Light Snow,160,2013-11-05 07:15:00
12:35 AM,32.0,30.2,93,30.04,1.8,SE,6.9,-,N/A,Snow,Light Snow,140,2013-11-05 07:35:00
12:55 AM,30.2,30.2,100,30.04,2.0,SE,8.1,-,N/A,Snow,Light Snow,130,2013-11-05 07:55:00
1:15 AM,30.2,30.2,100,30.03,3.0,SSE,4.6,-,N/A,Snow,Light Snow,150,2013-11-05 08:15:00
1:35 AM,30.2,30.2,100,30.03,3.0,SSE,4.6,-,N/A,Snow,Light Snow,150,2013-11-05 08:35:00
1:55 AM,30.2,30.2,100,30.03,5.0,South,3.5,-,N/A,Snow,Light Snow,170,2013-11-05 08:55:00
2:15 AM,30.2,30.2,100,30.02,4.0,Calm,Calm,-,N/A,Snow,Light Snow,0,2013-11-05 09:15:00
2:35 AM,30.2,28.4,93,30.02,4.0,Calm,Calm,-,N/A,Snow,Light Snow,0,2013-11-05 09:35:00
2:55 AM,30.2,30.2,100,30.02,3.0,Calm,Calm,-,N/A,Snow,Light Snow,0,2013-11-05 09:55:00
3:15 AM,30.2,30.2,100,30.01,2.0,Calm,Calm,-,N/A,Snow,Light Snow,0,2013-11-05 10:15:00
3:35 AM,30.2,30.2,100,30.01,5.0,Calm,Calm,-,N/A,,Overcast,0,2013-11-05 10:35:00
3:55 AM,30.2,28.4,93,30.02,3.0,Calm,Calm,-,N/A,Snow,Light Snow,0,2013-11-05 10:55:00
4:15 AM,30.2,28.4,93,30.02,2.0,Calm,Calm,-,N/A,Snow,Light Snow,0,2013-11-05 11:15:00
4:35 AM,30.2,28.4,93,30.03,4.0,Calm,Calm,-,N/A,Snow,Light Snow,0,2013-11-05 11:35:00
4:55 AM,30.2,28.4,93,30.03,4.0,Calm,Calm,-,N/A,Snow,Light Snow,0,2013-11-05 11:55:00
5:15 AM,30.2,28.4,93,30.03,1.8,Calm,Calm,-,N/A,Snow,Light Snow,0,2013-11-05 12:15:00
5:35 AM,30.2,28.4,93,30.04,3.0,Calm,Calm,-,N/A,Snow,Light Snow,0,2013-11-05 12:35:00
5:55 AM,30.2,28.4,93,30.04,3.0,Calm,Calm,-,N/A,Snow,Light Snow,0,2013-11-05 12:55:00
6:15 AM,30.2,28.4,93,30.04,5.0,West,3.5,-,N/A,Snow,Light Snow,270,2013-11-05 13:15:00
6:35 AM,30.2,30.2,100,30.06,2.0,West,4.6,-,N/A,Snow,Light Snow,280,2013-11-05 13:35:00
6:55 AM,30.2,30.2,100,30.06,0.5,West,5.8,-,0.01,Snow,Snow,280,2013-11-05 13:55:00
7:15 AM,30.2,28.4,93,30.07,0.2,West,4.6,-,N/A,Snow,Snow,280,2013-11-05 14:15:00
7:35 AM,30.2,28.4,93,30.07,0.5,Calm,Calm,-,0.01,Snow,Snow,0,2013-11-05 14:35:00
7:55 AM,30.2,28.4,93,30.08,1.0,Calm,Calm,-,0.01,Snow,Light Snow,0,2013-11-05 14:55:00
8:15 AM,30.2,28.4,93,30.09,1.8,Calm,Calm,-,N/A,Snow,Light Snow,0,2013-11-05 15:15:00
8:35 AM,30.2,28.4,93,30.09,1.2,Calm,Calm,-,N/A,Snow,Light Snow,0,2013-11-05 15:35:00
8:55 AM,30.2,28.4,93,30.08,3.0,West,3.5,-,N/A,,Overcast,260,2013-11-05 15:55:00
9:15 AM,30.2,28.4,93,30.09,5.0,West,5.8,-,N/A,Snow,Light Snow,280,2013-11-05 16:15:00
9:35 AM,30.2,28.4,93,30.09,10.0,West,4.6,-,N/A,,Overcast,280,2013-11-05 16:35:00
9:55 AM,30.2,28.4,93,30.09,4.0,West,3.5,-,N/A,,Overcast,270,2013-11-05 16:55:00
10:15 AM,30.2,28.4,93,30.09,5.0,West,5.8,-,N/A,,Mostly Cloudy,260,2013-11-05 17:15:00
10:35 AM,30.2,28.4,93,30.10,10.0,West,6.9,-,N/A,,Mostly Cloudy,280,2013-11-05 17:35:00
10:55 AM,30.2,26.6,86,30.10,10.0,WNW,8.1,-,N/A,,Overcast,290,2013-11-05 17:55:00
11:15 AM,32.0,26.6,80,30.09,10.0,NW,9.2,-,N/A,,Overcast,310,2013-11-05 18:15:00
11:35 AM,32.0,26.6,80,30.09,10.0,WNW,5.8,-,N/A,,Overcast,290,2013-11-05 18:35:00
11:55 AM,32.0,26.6,80,30.09,10.0,NW,6.9,-,N/A,,Mostly Cloudy,310,2013-11-05 18:55:00
12:15 PM,32.0,26.6,80,30.09,10.0,WNW,10.4,-,N/A,,Mostly Cloudy,300,2013-11-05 19:15:00
12:35 PM,32.0,26.6,80,30.08,10.0,NW,10.4,-,N/A,,Scattered Clouds,310,2013-11-05 19:35:00
12:55 PM,32.0,26.6,80,30.07,10.0,NW,10.4,-,N/A,,Clear,310,2013-11-05 19:55:00
1:15 PM,32.0,28.4,87,30.07,10.0,WNW,13.8,17.3,N/A,,Scattered Clouds,300,2013-11-05 20:15:00
1:35 PM,32.0,28.4,87,30.07,10.0,NNW,9.2,-,N/A,,Mostly Cloudy,330,2013-11-05 20:35:00
1:55 PM,32.0,26.6,80,30.06,10.0,NW,11.5,-,N/A,,Scattered Clouds,310,2013-11-05 20:55:00
2:15 PM,33.8,26.6,75,30.06,10.0,WNW,12.7,19.6,N/A,,Scattered Clouds,300,2013-11-05 21:15:00
2:35 PM,32.0,23.0,69,30.07,10.0,NW,12.7,-,N/A,,Clear,320,2013-11-05 21:35:00
2:55 PM,32.0,23.0,69,30.07,10.0,NW,12.7,-,N/A,,Clear,320,2013-11-05 21:55:00
3:15 PM,33.8,24.8,70,30.07,10.0,NNW,9.2,-,N/A,,Clear,330,2013-11-05 22:15:00
3:35 PM,33.8,23.0,65,30.07,10.0,NNW,5.8,-,N/A,,Clear,330,2013-11-05 22:35:00
3:55 PM,32.0,21.2,64,30.07,10.0,North,5.8,-,N/A,,Clear,350,2013-11-05 22:55:00
4:15 PM,32.0,21.2,64,30.07,10.0,North,4.6,-,N/A,,Clear,350,2013-11-05 23:15:00
4:35 PM,32.0,23.0,69,30.07,10.0,Calm,Calm,-,N/A,,Clear,0,2013-11-05 23:35:00
4:55 PM,30.2,23.0,75,30.07,10.0,North,4.6,-,N/A,,Clear,10,2013-11-05 23:55:00
5:15 PM,30.2,23.0,75,30.07,10.0,NNE,3.5,-,N/A,,Clear,20,2013-11-06 00:15:00
5:35 PM,26.6,23.0,86,30.08,10.0,SE,9.2,-,N/A,,Clear,140,2013-11-06 00:35:00
5:55 PM,26.6,26.6,100,30.08,3.0,SE,9.2,-,N/A,,Mostly Cloudy,130,2013-11-06 00:55:00
6:15 PM,26.6,26.6,100,30.08,0.2,SE,10.4,-,N/A,Fog,Light Freezing Fog,140,2013-11-06 01:15:00
6:35 PM,26.6,26.6,100,30.09,0.2,SSE,9.2,-,N/A,Fog,Light Freezing Fog,160,2013-11-06 01:35:00
6:55 PM,26.6,26.6,100,30.09,0.5,SE,8.1,-,N/A,Fog,Light Freezing Fog,130,2013-11-06 01:55:00
7:15 PM,26.6,26.6,100,30.08,0.2,SSE,6.9,-,N/A,Fog,Light Freezing Fog,160,2013-11-06 02:15:00
7:35 PM,26.6,26.6,100,30.08,0.5,SE,6.9,-,N/A,Fog,Light Freezing Fog,130,2013-11-06 02:35:00
7:55 PM,26.6,26.6,100,30.09,0.5,South,5.8,-,N/A,Fog,Light Freezing Fog,170,2013-11-06 02:55:00
8:15 PM,26.6,26.6,100,30.09,0.8,ESE,6.9,-,N/A,,Overcast,120,2013-11-06 03:15:00
8:35 PM,26.6,26.6,100,30.10,1.2,SE,4.6,-,N/A,,Overcast,130,2013-11-06 03:35:00
8:55 PM,26.6,26.6,100,30.10,2.0,ESE,4.6,-,N/A,,Overcast,120,2013-11-06 03:55:00
9:15 PM,26.6,26.6,100,30.11,10.0,SSE,8.1,-,N/A,,Overcast,160,2013-11-06 04:15:00
9:35 PM,26.6,26.6,100,30.11,10.0,Calm,Calm,-,N/A,,Overcast,0,2013-11-06 04:35:00
9:55 PM,26.6,24.8,93,30.11,10.0,ESE,4.6,-,N/A,,Overcast,110,2013-11-06 04:55:00
10:15 PM,26.6,24.8,93,30.10,10.0,ESE,5.8,-,N/A,,Overcast,110,2013-11-06 05:15:00
10:35 PM,24.8,24.8,100,30.10,10.0,ESE,6.9,-,N/A,,Overcast,110,2013-11-06 05:35:00
10:55 PM,24.8,24.8,100,30.10,10.0,SSE,4.6,-,N/A,,Overcast,150,2013-11-06 05:55:00
11:35 PM,23.0,23.0,100,30.09,10.0,Calm,Calm,-,N/A,,Overcast,0,2013-11-06 06:35:00
11:55 PM,23.0,23.0,100,30.08,10.0,Calm,Calm,-,N/A,,Overcast,0,2013-11-06 06:55:00